Location: Sungai Bunut
(2.6333°N, 113.7333°E)
Time: 10:29:55
(UTC+00:00)

Courier 1B - Pass Details

Date: 12 December 2023
Orbit: 962 x 1209 km, 28.3° (Epoch: 03 March)

Event Time Altitude Azimuth Distance (km) Brightness Sun altitude
Exits shadow 20:47:12 31° 327° (NNW) 1,932 8.6 -22.1°
Maximum altitude 20:47:38 31° 333° (NNW) 1,922 8.6 -22.0°
Drops below altitude 10° 20:54:10 10° 33° (NNE) 3,024 10.2 -20.5°
Sets 20:57:16 0° 44° (NE) 3,945 10.9 -19.8°
